STARLINK-32773, 62571

Orbit data source: Space-Track

STARLINK-32773, 62571 is a payload satellite owned by SpaceX/Seattle (US) in LEO that was launched on Fri, 10 Jan 2025 UTC via an FALCON 9 launch vehicle from the Air Force Eastern Test Range (AFETR). Payload-class satellites include a variety of spacecraft equipped with specific instruments for various scientific and technological missions. These include communications satellites like Starlink; space stations such as the ISS; scientific satellites like the Hubble; Earth observation satellites from companies like Planet Labs, Umbra, and HawkEye 360; GPS; miniature CubeSats for education and research; and military/defense satellites.

Loading next visibility...
Identifier
62571, 2025-006T
Orbit
LEO
Country
Flag of USUS
Related business
Manufacturer
SpaceX/Seattle
Mission
Operational Commercial Communications
Bus & Motor
STARLINK V2M, Unknown motor
Mass
730 kg wet, ~700 kg dry
Launch date (UTC)
2025-01-10 (1 year ago)
Launch vehicle
FALCON 9
Launch site
Air Force Eastern Test Range (AFETR)
Object type
Payload
Rocket body
Debris
Shape & HBR
Box + 2 Pan, 17.7 m
Radar Cross Section
33.884 m², Large (>1 m²)

Expand to show TLE details & history
Last TLE update: 17 hours ago

TLE from 17 hours ago
0 STARLINK-32773
1 62571U 25006T   26171.14520341  .00012920  00000-0  47792-3 0  9997
2 62571  43.0014  73.8076 0001135 280.2180  79.8544 15.27598823 80530
Epoch: 2026-06-20T03:29Z
TLE epoch observation values (Epoch: 2026-06-20T03:29:05.574Z)
Latitude
-0°
Longitude
113.17034°
Altitude
482.631 km
Speed
7.626 km/s
True Right ascension
04h 55m 13s
True Declination
0° 00' 00"
Sunlit
Object was in daylight at epoch
Visualization orbit readout
Latitude
Unknown
Longitude
Unknown
Altitude
Unknown
Speed
Unknown
Apparent Right ascension
Unknown
Apparent Declination
Unknown
Sunlit
N/A
Visualization observer readout
Local Sidereal Time
07:13:06
Azimuth
Unknown
Elevation
Unknown
Doppler factor
Unknown
Orbital elements
Apogee altitude
485.717 km
Perigee altitude
484.159 km
Semi-major axis
6,863.075 km
Eccentricity
0.00011
Inclination
43.0014°
RAAN
73.8076°
Arg. of periapsis
280.218°
True anomaly
79.8672°
Mean anomaly
79.8544°
Eccentric anomaly
79.8608°
Mean motion
3.81738 °/min
Orbital period
94.31 mins
BSTAR
0.00047792
Loading maneuver chart data...
Computing Atmospheric mass density...
Loading historical data...
Loading historical data...
Loading historical data...
Loading historical data...
Loading historical data...
Loading historical data...
Loading historical data...

Documentation

Showing up to 5 results
|